TimeCST,TemperatureF,Dew PointF,Humidity,Sea Level PressureIn,VisibilityMPH,Wind Direction,Wind SpeedMPH,Gust SpeedMPH,PrecipitationIn,Events,Conditions,WindDirDegrees,DateUTC
12:15 AM,23.5,19.2,84,30.15,7.0,WNW,8.1,-,N/A,,Overcast,290,2013-12-15 06:15:00
12:35 AM,23.4,19.4,85,30.14,7.0,West,5.8,-,N/A,,Overcast,280,2013-12-15 06:35:00
12:55 AM,22.6,18.5,84,30.13,7.0,West,5.8,-,N/A,,Mostly Cloudy,280,2013-12-15 06:55:00
1:15 AM,22.1,18.5,86,30.13,7.0,West,8.1,-,N/A,,Mostly Cloudy,270,2013-12-15 07:15:00
1:35 AM,21.0,17.2,85,30.13,7.0,West,8.1,-,N/A,,Scattered Clouds,270,2013-12-15 07:35:00
1:55 AM,20.1,15.8,83,30.13,10.0,West,5.8,-,N/A,,Clear,270,2013-12-15 07:55:00
2:15 AM,19.4,16.2,87,30.13,7.0,West,5.8,-,N/A,,Clear,260,2013-12-15 08:15:00
2:35 AM,19.0,15.4,86,30.13,7.0,West,5.8,-,N/A,,Clear,260,2013-12-15 08:35:00
2:55 AM,18.3,14.9,86,30.14,7.0,West,5.8,-,N/A,,Clear,270,2013-12-15 08:55:00
3:15 AM,17.6,14.5,88,30.16,7.0,West,4.6,-,N/A,,Clear,280,2013-12-15 09:15:00
3:35 AM,18.1,15.1,88,30.15,7.0,West,6.9,-,N/A,,Clear,270,2013-12-15 09:35:00
3:55 AM,18.1,14.9,87,30.14,7.0,West,4.6,-,N/A,,Clear,260,2013-12-15 09:55:00
4:15 AM,18.5,15.3,87,30.13,7.0,WSW,5.8,-,N/A,,Clear,240,2013-12-15 10:15:00
4:35 AM,18.9,15.4,87,30.14,7.0,West,5.8,-,N/A,,Clear,260,2013-12-15 10:35:00
4:55 AM,18.9,15.4,87,30.14,7.0,West,6.9,-,N/A,,Clear,260,2013-12-15 10:55:00
5:15 AM,18.3,14.9,86,30.14,7.0,West,5.8,-,N/A,,Clear,270,2013-12-15 11:15:00
5:35 AM,17.8,14.4,86,30.14,7.0,West,6.9,-,N/A,,Clear,260,2013-12-15 11:35:00
5:55 AM,17.4,14.2,87,30.14,7.0,West,5.8,-,N/A,,Clear,260,2013-12-15 11:55:00
6:15 AM,16.7,13.8,88,30.15,7.0,West,3.5,-,N/A,,Clear,270,2013-12-15 12:15:00
6:35 AM,16.2,13.3,88,30.15,7.0,West,3.5,-,N/A,,Clear,270,2013-12-15 12:35:00
6:55 AM,16.3,13.3,88,30.16,7.0,West,4.6,-,N/A,,Scattered Clouds,260,2013-12-15 12:55:00
7:15 AM,17.2,14.2,88,30.15,7.0,West,3.5,-,N/A,,Mostly Cloudy,260,2013-12-15 13:15:00
7:35 AM,17.8,14.9,88,30.16,5.0,West,5.8,-,N/A,,Overcast,280,2013-12-15 13:35:00
7:55 AM,18.5,15.4,88,30.16,7.0,WSW,5.8,-,N/A,,Overcast,240,2013-12-15 13:55:00
8:15 AM,19.2,15.8,87,30.15,5.0,WSW,4.6,-,N/A,,Overcast,240,2013-12-15 14:15:00
8:35 AM,19.8,16.3,87,30.16,5.0,West,4.6,-,N/A,,Overcast,260,2013-12-15 14:35:00
8:55 AM,20.1,16.7,87,30.15,5.0,WSW,4.6,-,N/A,,Overcast,250,2013-12-15 14:55:00
9:15 AM,20.7,16.9,85,30.16,5.0,WSW,4.6,-,N/A,,Overcast,250,2013-12-15 15:15:00
9:35 AM,21.2,17.4,85,30.16,7.0,West,3.5,-,N/A,,Mostly Cloudy,260,2013-12-15 15:35:00
9:55 AM,21.7,17.6,84,30.16,7.0,West,3.5,-,N/A,,Scattered Clouds,260,2013-12-15 15:55:00
10:15 AM,22.1,17.8,83,30.18,7.0,West,4.6,-,N/A,,Scattered Clouds,280,2013-12-15 16:15:00
10:35 AM,22.5,18.3,84,30.16,7.0,West,3.5,-,N/A,,Scattered Clouds,270,2013-12-15 16:35:00
10:55 AM,22.8,18.5,83,30.16,7.0,WSW,4.6,-,N/A,,Overcast,240,2013-12-15 16:55:00
11:15 AM,23.0,18.7,84,30.15,5.0,WSW,5.8,-,N/A,,Overcast,240,2013-12-15 17:15:00
11:35 AM,23.9,19.4,83,30.15,5.0,West,4.6,-,N/A,,Haze,270,2013-12-15 17:35:00
11:55 AM,24.1,19.8,84,30.12,5.0,SW,5.8,-,N/A,,Overcast,220,2013-12-15 17:55:00
12:15 PM,25.2,20.5,82,30.11,7.0,SW,6.9,-,N/A,,Overcast,230,2013-12-15 18:15:00
12:35 PM,25.5,20.7,82,30.10,5.0,SW,4.6,-,N/A,,Haze,230,2013-12-15 18:35:00
12:55 PM,25.7,21.2,83,30.09,5.0,Calm,Calm,-,N/A,,Haze,0,2013-12-15 18:55:00
1:15 PM,25.9,21.0,82,30.08,7.0,Calm,Calm,-,N/A,,Scattered Clouds,0,2013-12-15 19:15:00
1:35 PM,26.2,20.8,80,30.08,7.0,Calm,Calm,-,N/A,,Clear,0,2013-12-15 19:35:00
1:55 PM,26.6,21.2,80,30.09,7.0,Calm,Calm,-,N/A,,Clear,0,2013-12-15 19:55:00
2:15 PM,27.3,21.9,80,30.08,7.0,Calm,Calm,-,N/A,,Scattered Clouds,0,2013-12-15 20:15:00
2:35 PM,27.0,21.7,81,30.08,7.0,Calm,Calm,-,N/A,,Mostly Cloudy,0,2013-12-15 20:35:00
2:55 PM,27.0,21.9,81,30.09,5.0,Calm,Calm,-,N/A,,Haze,0,2013-12-15 20:55:00
3:15 PM,29.3,22.5,76,30.10,5.0,Calm,Calm,-,N/A,,Haze,0,2013-12-15 21:15:00
3:35 PM,27.1,22.1,81,30.10,5.0,Calm,Calm,-,N/A,,Haze,0,2013-12-15 21:35:00
3:55 PM,26.6,22.1,83,30.09,5.0,Calm,Calm,-,N/A,,Scattered Clouds,0,2013-12-15 21:55:00
4:15 PM,26.1,22.1,85,30.10,5.0,Calm,Calm,-,N/A,,Clear,0,2013-12-15 22:15:00
4:35 PM,25.7,22.6,88,30.09,5.0,Calm,Calm,-,N/A,,Clear,0,2013-12-15 22:35:00
4:55 PM,25.5,22.8,89,30.09,5.0,Calm,Calm,-,N/A,,Clear,0,2013-12-15 22:55:00
5:15 PM,25.3,23.0,91,30.08,5.0,Calm,Calm,-,N/A,,Scattered Clouds,0,2013-12-15 23:15:00
5:35 PM,25.5,23.2,91,30.09,5.0,Calm,Calm,-,N/A,,Mostly Cloudy,0,2013-12-15 23:35:00
5:55 PM,25.3,22.6,89,30.09,5.0,Calm,Calm,-,N/A,,Scattered Clouds,0,2013-12-15 23:55:00
6:15 PM,25.3,23.0,91,30.09,5.0,ENE,3.5,-,N/A,,Mostly Cloudy,70,2013-12-16 00:15:00
6:35 PM,25.7,23.0,89,30.08,5.0,Calm,Calm,-,N/A,,Mostly Cloudy,0,2013-12-16 00:35:00
6:55 PM,26.1,23.4,90,30.08,5.0,East,3.5,-,N/A,,Overcast,80,2013-12-16 00:55:00
7:15 PM,26.1,23.0,88,30.08,5.0,East,3.5,-,N/A,,Overcast,80,2013-12-16 01:15:00
7:35 PM,26.1,23.0,88,30.08,5.0,East,3.5,-,N/A,,Mostly Cloudy,80,2013-12-16 01:35:00
7:55 PM,26.1,23.0,88,30.09,5.0,Calm,Calm,-,N/A,,Mostly Cloudy,0,2013-12-16 01:55:00
8:15 PM,26.4,23.4,88,30.08,5.0,Calm,Calm,-,N/A,,Overcast,0,2013-12-16 02:15:00
8:35 PM,26.2,23.4,89,30.08,5.0,ENE,3.5,-,N/A,,Overcast,60,2013-12-16 02:35:00
8:55 PM,26.1,23.2,89,30.08,5.0,Calm,Calm,-,N/A,,Overcast,0,2013-12-16 02:55:00
9:15 PM,26.1,23.4,90,30.08,5.0,NE,3.5,-,N/A,,Overcast,50,2013-12-16 03:15:00
9:35 PM,26.1,23.4,90,30.08,5.0,ENE,3.5,-,N/A,,Overcast,60,2013-12-16 03:35:00
9:55 PM,26.2,23.5,90,30.07,5.0,NE,4.6,-,N/A,,Overcast,50,2013-12-16 03:55:00
10:15 PM,26.1,23.4,90,30.06,5.0,NE,5.8,-,N/A,,Overcast,50,2013-12-16 04:15:00
10:35 PM,25.7,23.4,91,30.07,4.0,NE,6.9,-,N/A,,Overcast,40,2013-12-16 04:35:00
10:55 PM,25.5,23.0,90,30.07,5.0,NE,8.1,-,N/A,,Overcast,40,2013-12-16 04:55:00
11:15 PM,25.5,23.0,90,30.07,5.0,NE,6.9,-,N/A,,Overcast,50,2013-12-16 05:15:00
11:35 PM,25.2,22.8,91,30.05,5.0,ENE,8.1,-,N/A,,Overcast,60,2013-12-16 05:35:00
11:55 PM,24.8,22.6,91,30.04,5.0,ENE,8.1,-,N/A,,Overcast,70,2013-12-16 05:55:00